Home > Weather > Butte > Past weeks

Flag for U.S.A. Weather for the Past 2 Weeks in Butte, Montana, U.S.A.

Now
34 °F

Passing clouds.


Feels Like: 29 °F
Forecast: 15 / 27 °F
Wind: 6 mph from Southeast

Location: Mooney Airport

Current Time: Feb 6, 2016 at 6:52:57 AM

Latest Report: Feb 6, 2016 at 5:53 AM


Visibility: 10 mi

Pressure: 30.14 "Hg (24.44 "Hg at 1685m altitude)

Humidity: 48%

Dew point: 16 °F

Location of ButteLocation

Historic Weather in Butte — Graph

°F

Butte Temperature Yesterday

Maximum temperature yesterday: 39 °F (at 3:53 PM)
Minimum temperature yesterday: 10 °F (at 5:53 AM)
Average temperature yesterday: 26 °F

High & Low Weather Summary for the Past Weeks

 TemperatureHumidityPressure
High41 °F (Jan 28, 2:53 PM)96% (Jan 24, 9:53 AM)30.63 "Hg (Jan 24, 9:53 AM)
Low-12 °F (Feb 3, 7:53 AM)46% (Jan 31, 3:53 PM)29.60 "Hg (Jan 29, 7:00 PM)
Average20 °F76%30.17 "Hg
* Reported Jan 22 4:53 AM — Feb 6 4:53 AM, Butte, Weather by CustomWeather, © 2016

Note: Actual official high and low records may vary slightly from our data, if they occured in-between our weather recording intervals... More about our weather records

Advertising

Butte Weather History for the Previous 24 Hours

 ConditionsComfort  
Time TempWeatherWind HumidityBarometerVisibility
4:53 AM
Sat, Feb 6
34 °FPassing clouds.10 mph48%30.18 "Hg10 mi
3:53 AM35 °FPassing clouds.5 mph48%30.18 "Hg10 mi
2:53 AM36 °FClear.7 mph50%30.18 "Hg10 mi
1:53 AM34 °FClear.12 mph54%30.21 "Hg10 mi
12:53 AM32 °FClear.9 mph59%30.24 "Hg10 mi
11:53 PM
Fri, Feb 5
36 °FPassing clouds.5 mph50%30.23 "Hg10 mi
10:53 PM34 °FClear.7 mph54%30.29 "Hg10 mi
9:53 PM30 °FClear.9 mph64%30.37 "Hg10 mi
8:53 PM34 °FClear.5 mph54%30.37 "Hg10 mi
7:53 PM34 °FClear.No wind56%30.39 "Hg10 mi
6:53 PM33 °FClear.5 mph56%30.42 "Hg10 mi
5:53 PM32 °FClear.No wind61%30.44 "Hg10 mi
4:53 PM35 °FSunny.7 mph54%30.40 "Hg10 mi
3:53 PM39 °FSunny.3 mph48%30.40 "Hg10 mi
2:53 PM38 °FSunny.6 mph51%30.41 "Hg10 mi
1:53 PM36 °FSunny.6 mph52%30.41 "HgN/A
12:53 PM34 °FSunny.5 mph56%30.42 "Hg10 mi
11:53 AM33 °FSunny.6 mph54%30.44 "Hg10 mi
10:53 AM25 °FOvercast.5 mph69%30.49 "Hg10 mi
9:53 AM16 °FPartly sunny.No wind80%30.54 "Hg10 mi
8:53 AM15 °FPassing clouds.No wind80%30.55 "Hg10 mi
7:53 AM15 °FOvercast.3 mph80%30.54 "Hg10 mi
6:53 AM12 °FOvercast.No wind80%30.55 "Hg10 mi
Weather by CustomWeather, © 2016

See weather overviewHow to use our weather pages